Regional Weather Roundup
Issued by NWS San Angelo, TX

Home | Current Version | Previous Version | Text Only | Print | Product List | Glossary On
Versions: 1 2 3 4 5 6 7 8 9 10 11 12 13 14 15 16 17 18 19 20 21 22 23 24 25 26 27 28 29 30 31 32 33 34 35 36 37 38 39 40 41 42 43 44 45 46 47 48 49 50
000
ASUS44 KSJT 271202
RWRSJT
WEST CENTRAL TEXAS REGIONAL WEATHER ROUNDUP
NATIONAL WEATHER SERVICE SAN ANGELO TX
700 AM CDT THU APR 27 2017

NOTE: "FAIR" INDICATES FEW OR NO CLOUDS BELOW 12,000 FEET WITH NO
SIGNIFICANT WEATHER AND/OR OBSTRUCTIONS TO VISIBILITY.

TXZ049-054-064>066-071>073-076>078-098-099-113-114-127-128-139-140-
154-155-168>170-271300
...LOCATIONS ACROSS WEST CENTRAL TEXAS...

CITY           SKY/WX    TMP DP  RH WIND       PRES   REMARKS
SAN ANGELO     CLEAR     52  38  58 SE6       29.75F
ABILENE        CLEAR     47  41  80 SE7       29.76F
DYESS AFB      CLOUDY    50  42  73 S9        29.74F
JUNCTION       CLEAR     47  40  76 CALM      29.77F
SWEETWATER     CLEAR     49  40  69 SE8       29.76F
BROWNWOOD      NOT AVBL
COLEMAN        CLOUDY    46  40  81 CALM      29.78S
SONORA         CLEAR     45  37  76 CALM      29.82R
OZONA            N/A     46  36  66 CALM      29.80R
BRADY          NOT AVBL
$$

TEXAS PANHANDLE/OKLAHOMA PANHANDLE

CITY           SKY/WX    TMP DP  RH WIND       PRES   REMARKS
AMARILLO       CLEAR     48  35  60 S18       29.68F
BORGER         MOCLDY    52  36  54 S9        29.64F
CANADIAN       PTCLDY    47  40  74 S12       29.66F
DALHART        MOCLDY    47  39  74 S12       29.65S
DUMAS          SUNNY     47  36  64 S18       29.64S WCI  40
GUYMON         NOT AVBL
HEREFORD       PTSUNNY   47  40  75 SE10G16   29.70S
PAMPA          SUNNY     48  38  68 S18       29.65F
PERRYTON       CLEAR     43  38  80 SE6       29.64F WCI  40
$$

SOUTHERN PANHANDLE/SOUTH PLAINS/ROLLING PLAINS

CITY           SKY/WX    TMP DP  RH WIND       PRES   REMARKS
LUBBOCK        PTCLDY    42  35  76 SE8       29.71F WCI  37
SNYDER         CLEAR    N/A N/A N/A E6        29.74S
CHILDRESS      CLOUDY    51  39  63 S10       29.74S
SEMINOLE       SUNNY     46  34  61 CALM      29.70F
$$

PERMIAN BASIN

CITY           SKY/WX    TMP DP  RH WIND       PRES   REMARKS
MIDLAND        CLEAR     58  34  40 S12       29.69F
ODESSA         CLEAR     60  33  36 S17       29.70F
WINK           CLOUDY    52  33  48 SE8       29.67S
$$

FAR WEST/SOUTHWEST MOUNTAINS/TRANS PECOS

CITY           SKY/WX    TMP DP  RH WIND       PRES   REMARKS
ALPINE         SUNNY     59  26  27 W12       29.88S
DRYDEN           N/A     54  34  46 CALM      29.75S
EL PASO        MOCLDY    63  21  20 S12       29.76F
FORT STOCKTON  CLOUDY    63  30  28 S14       29.73S
GUADALUPE PASS CLOUDY    59  24  26 W38G46    29.77R
MARFA          CLEAR     59  29  31 S9        29.86S
PECOS          CLOUDY    54  29  38 S3        29.70S
$$

DALLAS/FORT WORTH METROPLEX

CITY           SKY/WX    TMP DP  RH WIND       PRES   REMARKS
DFW AIRPORT    CLOUDY    49  48  97 SE3       29.74S
FTW MEACHAM    CLOUDY    48  46  93 SW6       29.78R
DAL-EXECUTIVE  PTCLDY    47  46  97 S5        29.77R
GRAND PRAIRIE  CLEAR     50  46  87 CALM      29.78R
ADDISON        CLEAR     52  46  82 E3        29.76S
MESQUITE       SUNNY     45  45 100 CALM      29.78R
LANCASTER      SUNNY     42  41  97 CALM      29.77S FOG
$$

NORTH CENTRAL TEXAS

CITY           SKY/WX    TMP DP  RH WIND       PRES   REMARKS
SHRMAN/DENISON CLOUDY    46  45  95 CALM      29.78R
GAINESVILLE    CLOUDY    44  43  94 CALM      29.78S
BRIDGEPORT     CLOUDY    43  43 100 W5        29.80R
DENTON         CLOUDY    44  44 100 CALM      29.75F
WAXAHACHIE     MOSUNNY   45  45 100 S3        29.80R
GRANBURY       CLOUDY    48  46  92 CALM      29.82R
$$

WESTERN NORTH TEXAS

CITY           SKY/WX    TMP DP  RH WIND       PRES   REMARKS
WICHITA FALLS  CLOUDY    46  41  82 SW13G20   29.74S
VERNON         CLOUDY    49  40  70 SW6       29.76R
BRECKENRIDGE   SUNNY     46  42  84 S5        29.78S
COMANCHE       CLEAR     46  44  93 S6        29.79F
$$

CENTRAL AND SOUTH CENTRAL TEXAS

CITY           SKY/WX    TMP DP  RH WIND       PRES   REMARKS
AUSTIN/BERGSTM PTCLDY    47  45  93 SW3       29.82R
WACO           CLEAR     48  47  96 SW6       29.82R
HILLSBORO      SUNNY     46  45  94 S3        29.81R
TEMPLE         CLEAR     46  45  96 SE6       29.83R
KILLEEN-GRAY   PTCLDY    47  45  90 S6        29.80
FORT HOOD      PTCLDY    47  45  90 S3        29.78R
GEORGETOWN     CLEAR     48  43  81 CALM      29.82S
LAGO VISTA     FAIR      52  46  80 SE3       29.82R
SAN MARCOS     CLEAR     48  43  81 CALM      29.83R
NEW BRAUNFELS  CLEAR     50  46  86 CALM      29.81R
RANDOLPH AFB   CLEAR     53  48  84 CALM      29.82R
SAN ANTONIO    CLEAR     54  45  71 E5        29.82R
STINSON        CLEAR     56  46  69 NE3       29.81R
PLEASANTON     NOT AVBL
LA GRANGE      CLEAR     53  49  87 CALM      29.80R
GIDDINGS       SUNNY     49  47  93 CALM      29.82R
$$

EAST TEXAS

CITY           SKY/WX    TMP DP  RH WIND       PRES   REMARKS
PARIS          CLEAR     43  39  87 SE5       29.79R
CLARKSVILLE    NOT AVBL
TYLER          CLEAR     47  45  93 E3        29.79R
LONGVIEW       PTCLDY    46  46 100 CALM      29.81R
PALESTINE      SUNNY     45  44  97 SE3       29.82R
NACOGDOCHES    CLEAR     43  39  87 CALM      29.80R
$$

TEXAS HILL COUNTRY AND EDWARDS PLATEAU

CITY           SKY/WX    TMP DP  RH WIND       PRES   REMARKS
LLANO          NOT AVBL
HORSESHOE BAY  FAIR      51  46  83 SE5       29.80R
KERRVILLE      CLEAR     44  42  91 SE3       29.80S
FREDERICKSBRG  NOT AVBL
ROCKSPRINGS    CLOUDY    54  41  62 S9        29.81R HAZE
HONDO          CLEAR     52  45  77 SE3       29.82R
UVALDE         SUNNY     48  45  87 CALM      29.84R
DEL RIO        CLEAR     57  43  59 SE9       29.78F
$$

SOUTHEAST TEXAS

CITY           SKY/WX    TMP DP  RH WIND       PRES   REMARKS
COLLEGE STN    CLEAR     51  47  86 CALM      29.83R
CALDWELL       NOT AVBL
CROCKETT       SUNNY     45  45 100 CALM      29.85R
BRENHAM        CLEAR     51  49  93 E3        29.83R
HUNTSVILLE     CLEAR     53  46  77 CALM      29.83R
CONROE         CLEAR     45  44  97 NW3       29.83R
HOUSTON BUSH   CLEAR     54  49  83 E7        29.82R
HOUSTON HOBBY  CLEAR     56  47  71 NE9       29.81S
PERLAND        CLEAR     57  49  74 NE8       29.83S
WHARTON        SUNNY     53  47  82 N3        29.81S
$$

THE UPPER TEXAS COAST

CITY           SKY/WX    TMP DP  RH WIND       PRES   REMARKS
ORANGE         SUNNY     51  50  97 CALM      29.85R
PORT ARTHUR    CLEAR     53  49  86 CALM      29.83R
GALVESTON      CLEAR     60  52  74 NE15      29.83R
ANGLETON       CLEAR     58  51  78 NE9       29.81R
BAY CITY       MOSUNNY   55  51  89 NE5       29.80S
$$

TEXAS COASTAL BEND, RIO GRANDE PLAINS DEEP SOUTH TEXAS

CITY           SKY/WX    TMP DP  RH WIND       PRES   REMARKS
VICTORIA       PTCLDY    56  50  80 NE6       29.80R
BEEVILLE       FAIR      55  51  86 E5        29.80R
ROCKPORT       CLEAR     65  55  70 NE9       29.79R
PORT ARANSAS   SUNNY     69  57  65 E16G23    29.78R
PORT LAVACA    MOSUNNY   60  54  79 NE9       29.81R
CORPUS CHRISTI PTCLDY    66  50  56 NE13      29.78R
KINGSVILLE NAS PTCLDY    62  55  77 N8        29.77R
COTULLA        CLEAR     57  47  69 E3        29.81R
LAREDO         CLEAR     62  49  62 E6        29.82R
BROWNSVILLE    CLOUDY    76  70  82 NE13      29.76R
PORT ISABEL    CLOUDY    76  70  82 E15       29.76R
HEBBRONVILLE   SUNNY     59  49  68 CALM      29.81R
MCALLEN          N/A     72  63  73 NE6       29.78R
WESLACO        MOCLDY    65  63  91 CALM      29.77R
FALFURRIAS     SUNNY     62  51  66 CALM      29.80R
EDINBURG       SUNNY     65  60  84 NW3       29.79R
$$




USA.gov is the U.S. government's official web portal to all federal, state and local government web resources and services.